Regional Weather Roundup
Issued by NWS

Home | Current Version | Previous Version | Graphics & Text | Print | Product List | Glossary On
Versions: 1 2 3 4 5 6 7 8 9 10 11 12 13 14 15 16 17 18 19 20 21 22 23 24 25 26 27 28 29 30 31 32 33 34 35 36 37 38 39 40 41 42 43 44 45 46 47 48 49 50
000
ASUS43 KOAX 270710
RWRNE

WEATHER ROUNDUP FOR NEBRASKA
NATIONAL WEATHER SERVICE OMAHA NE
100 AM CST FRI FEB 27 2015

NOTES: SATELLITE DATA IS BEING USED TO AUGMENT CLOUD COVER ABOVE
       12000 FEET.
       "FAIR" INDICATES FEW OR NO CLOUDS BELOW 12,000 FEET WITH NO
       SIGNIFICANT WEATHER AND/OR OBSTRUCTIONS TO VISIBILITY.

  * THESE STATIONS DO NOT REPORT WEATHER SUCH AS RAIN...SNOW OR FOG.

NEZ001>004-019>022-054>056-270800-
NEBRASKA PANHANDLE

CITY           SKY/WX    TMP DP  RH WIND       PRES   REMARKS
SCOTTSBLUFF    CLOUDY     8   2  76 SE10      30.27F WCI  -6
ALLIANCE       CLOUDY     1  -4  79 SE5       30.28F WCI  -9
CHADRON        CLEAR     -6 -12  75 SW5       30.35F WCI -17
KIMBALL        FLURRIES   5   2  88 SE8       30.16F WCI  -8
SIDNEY         CLOUDY     6   1  80 SE13      30.25F HAZE    WCI -10
$$

NEZ057>060-069>072-079>082-270800-
SOUTHWEST NEBRASKA

CITY           SKY/WX    TMP DP  RH WIND       PRES   REMARKS
NORTH PLATTE   CLEAR     -1  -7  75 NE5       30.43F WCI -11
IMPERIAL       PTCLDY     7  -4  60 E10       30.37F WCI  -8
LEXINGTON      CLEAR      1  -6  72 CALM      30.48S
MCCOOK         PTCLDY     9  -2  61 NE5       30.45S WCI   1
OGALLALA       CLEAR      4  -2  74 E5        30.37F WCI  -5
$$

NEZ005>010-023>029-035>040-094-270800-
NORTH CENTRAL NEBRASKA

CITY           SKY/WX    TMP DP  RH WIND       PRES   REMARKS
VALENTINE      CLEAR     -5 -10  79 CALM      30.43F
AINSWORTH      CLEAR     -1  -7  78 CALM      30.44S
BROKEN BOW     CLEAR     -4 -10  75 CALM      30.46S
O`NEILL        CLEAR     -2  -7  79 CALM      30.50S
ORD            CLEAR     -4 -10  75 CALM      30.50S
THEDFORD       CLEAR     -1  -6  80 CALM      30.42S
$$

NEZ041-046>049-061>064-073>077-083>087-270800-
SOUTH CENTRAL NEBRASKA

CITY           SKY/WX    TMP DP  RH WIND       PRES   REMARKS
GRAND ISLAND   CLEAR      0  -6  76 W3        30.53S
AURORA         CLEAR     -2  -7  78 CALM      30.53S
HASTINGS       CLEAR      1  -5  75 SW3       30.51S
HEBRON         CLEAR      1  -4  80 CALM      30.56F
HOLDREGE       CLEAR      2  -6  66 E3        30.49R
KEARNEY *      CLEAR      1  -6  71 CALM      30.51R
YORK             N/A      0  -4  85 CALM      30.54S
$$

NEZ011>018-030>034-042>045-270800-
NORTHEAST NEBRASKA

CITY           SKY/WX    TMP DP  RH WIND       PRES   REMARKS
NORFOLK        CLEAR     -5  -9  83 NW5       30.54S WCI -16
ALBION         CLEAR     -4 -10  76 CALM      30.53S
BLAIR          CLEAR      2  -5  71 N6        30.55S WCI  -9
COLUMBUS *     CLEAR     -2 -17  50 CALM      30.56S
FREMONT        FAIR       0  -6  77 CALM      30.58S
TEKAMAH        CLEAR     -1  -7  75 NW9       30.59F WCI -16
WAYNE          CLEAR     -5 -10  79 CALM      30.56S
$$

NEZ050>053-065>068-078-088>093-270800-
SOUTHEAST NEBRASKA

CITY           SKY/WX    TMP DP  RH WIND       PRES   REMARKS
LINCOLN        CLEAR     -3  -7  82 CALM      30.60R
OMAHA EPPLEY   CLEAR      1  -3  83 CALM      30.60R
BEATRICE       CLEAR     -1  -5  84 N3        30.57S
FALLS CITY     CLEAR      0  -5  79 CALM      30.60S
NEBRASKA CITY  CLEAR      3  -4  71 NW3       30.58S
PLATTSMOUTH    CLEAR      1  -5  77 CALM      30.57S
$$

NEZ044-045-051>053-067-270800-
OMAHA AREA

CITY           SKY/WX    TMP DP  RH WIND       PRES   REMARKS
OMAHA EPPLEY   CLEAR      1  -3  83 CALM      30.60R
BLAIR          CLEAR      2  -5  71 N6        30.55S WCI  -9
FREMONT        FAIR       0  -6  77 CALM      30.58S
MILLARD        CLEAR      4  -4  70 CALM      30.60S
OFFUTT AFB     CLEAR      3  -4  70 N3        30.59S
PLATTSMOUTH    CLEAR      1  -5  77 CALM      30.57S
WAHOO          FAIR      -1  -7  77 NW3       30.58S
$$


USA.gov is the U.S. government's official web portal to all federal, state and local government web resources and services.